Tacoma Narrows, WA
on Thursday, February 28, 2013

Thursday
Previous Day Next Day
Daily Summary
 ActualAverageRecord
Temperature
Mean Temperature °F °F  
Max Temperature 51°F 47°F 54°F (2005)
Min Temperature 42°F 36°F 32°F (2002)
Degree Days
Heating Degree Days 18    
Moisture
Dew Point 45°F   
Average Humidity 91    
Maximum Humidity 93    
Minimum Humidity 87    
Precipitation
Precipitation 0.60 in in in ()
Wind
Wind Speed 5 mph   
Max Wind Speed 18 mph   
Max Gust Speed 24 mph   
Visibility 4 miles   
Events Rain   
Averages and records for this station are not official NWS values.
Key: T is trace of precipitation, MM is missing value
Source: NWS Daily Summary
Seasonal Weather Averages
Time(PST)TemperatureDew PointHumidity Pressure Visibility Wind DirectionWind SpeedGust SpeedPrecipitationEvents Conditions
12:53 AM 42.8°F 41.0°F 93% 30.25 in 5.0 miles Calm Calm - N/A Rain Light Rain
1:29 AM 44.6°F 41.0°F 87% 30.24 in 5.0 miles Calm Calm - 0.03 in Rain Light Rain
1:53 AM 44.1°F 41.0°F 89% 30.24 in 5.0 miles ENE 4.6 mph - 0.05 in Rain Light Rain
2:03 AM 44.6°F 42.8°F 93% 30.24 in 6.0 miles NE 4.6 mph - 0.01 in Rain Light Rain
2:21 AM 44.6°F 42.8°F 93% 30.24 in 5.0 miles NNE 3.5 mph - 0.02 in Rain Light Rain
2:39 AM 44.6°F 41.0°F 87% 30.23 in 5.0 miles NE 4.6 mph - 0.03 in Rain Light Rain
2:53 AM 44.1°F 42.1°F 93% 30.23 in 4.0 miles NE 4.6 mph - 0.04 in Rain Light Rain
3:53 AM 44.1°F 41.0°F 89% 30.22 in 5.0 miles NNE 4.6 mph - 0.02 in Rain Light Rain
4:53 AM 43.0°F 41.0°F 93% 30.22 in 6.0 miles NNE 3.5 mph - 0.06 in Rain Light Rain
5:53 AM 43.0°F 41.0°F 93% 30.20 in 10.0 miles Calm Calm - 0.05 in Rain Light Rain
6:03 AM 42.8°F 41.0°F 93% 30.20 in 10.0 miles Calm Calm - 0.00 in Rain Light Rain
6:53 AM 43.0°F 41.0°F 93% 30.20 in 6.0 miles NNE 3.5 mph - 0.02 in Rain Light Rain
7:33 AM 42.8°F 41.0°F 93% 30.19 in 2.5 miles Calm Calm - 0.01 in Rain Light Rain
7:53 AM 43.0°F 41.0°F 93% 30.20 in 3.0 miles Calm Calm - 0.03 in Rain Light Rain
7:57 AM 42.8°F 41.0°F 93% 30.19 in 2.0 miles Calm Calm - 0.00 in Rain Light Rain
8:53 AM 43.0°F 41.0°F 93% 30.21 in 2.5 miles Calm Calm - 0.04 in Rain Light Rain
9:34 AM 44.6°F 42.8°F 93% 30.20 in 2.0 miles Calm Calm - 0.04 in Rain Light Rain
9:53 AM 44.1°F 42.1°F 93% 30.22 in 2.0 miles South 3.5 mph - 0.05 in Rain Light Rain
9:55 AM 44.6°F 42.8°F 93% 30.21 in 2.0 miles South 3.5 mph - 0.00 in Rain Light Rain
10:27 AM 44.6°F 42.8°F 93% 30.21 in 2.0 miles South 4.6 mph - 0.01 in Rain Light Rain
10:53 AM 45.0°F 43.0°F 93% 30.23 in 2.0 miles SSW 3.5 mph - 0.02 in Rain Light Rain
11:53 AM 45.0°F 43.0°F 93% 30.24 in 1.0 miles SSE 4.6 mph - 0.01 in Rain Light Rain
12:53 PM 48.9°F 46.9°F 93% 30.24 in 2.5 miles SSW 5.8 mph - 0.02 in Rain Light Rain
12:54 PM 48.9°F 46.9°F 93% 30.24 in 2.5 miles SSW 5.8 mph - 0.02 in Rain Light Rain
1:53 PM 51.1°F 48.0°F 89% 30.25 in 2.0 miles South 9.2 mph - 0.01 in   Overcast
2:53 PM 51.1°F 48.9°F 92% 30.27 in 2.0 miles South 8.1 mph - 0.01 in Rain Light Rain
3:53 PM 51.1°F 48.9°F 92% 30.29 in 2.0 miles South 8.1 mph - 0.07 in Rain Light Rain
4:00 PM 51.8°F 48.2°F 88% 30.28 in 2.0 miles SSW 9.2 mph - 0.00 in Rain Light Rain
4:03 PM 51.8°F 48.2°F 88% 30.28 in 2.0 miles South 8.1 mph - 0.00 in Rain Light Rain
4:24 PM 51.8°F 48.2°F 88% 30.28 in 2.0 miles South 10.4 mph - 0.02 in Rain Light Rain
4:25 PM 51.8°F 48.2°F 88% 30.28 in 2.0 miles South 10.4 mph - 0.02 in Rain Light Rain
4:53 PM 51.1°F 48.9°F 92% 30.29 in 2.0 miles South 11.5 mph - 0.02 in   Overcast
5:06 PM 51.8°F 48.2°F 88% 30.28 in 2.0 miles South 11.5 mph - 0.01 in Rain Light Rain
5:53 PM 51.1°F 48.9°F 92% 30.28 in 2.0 miles South 9.2 mph - 0.01 in   Overcast
6:29 PM 51.8°F 48.2°F 88% 30.28 in 2.0 miles South 6.9 mph - 0.01 in   Overcast
6:53 PM 51.1°F 48.9°F 92% 30.30 in 2.0 miles SSW 8.1 mph - 0.02 in Rain Light Rain
7:00 PM 51.8°F 48.2°F 88% 30.29 in 4.0 miles SSW 9.2 mph - 0.01 in Rain Light Rain
7:53 PM 51.1°F 48.9°F 92% 30.31 in 4.0 miles South 10.4 mph - 0.03 in   Overcast
8:00 PM 51.8°F 48.2°F 88% 30.30 in 10.0 miles South 13.8 mph - N/A   Overcast
8:19 PM 51.8°F 48.2°F 88% 30.30 in 10.0 miles SSW 11.5 mph - N/A   Overcast
8:53 PM 51.1°F 48.0°F 89% 30.31 in 10.0 miles SSW 11.5 mph - N/A   Overcast
9:53 PM 51.1°F 48.0°F 89% 30.33 in 9.0 miles SSW 11.5 mph - 0.01 in Rain Light Rain
10:53 PM 51.1°F 48.0°F 89% 30.33 in 10.0 miles South 12.7 mph - 0.01 in   Overcast
11:23 PM 51.8°F 48.2°F 88% 30.31 in 10.0 miles South 13.8 mph 18.4 mph 0.00 in Rain Light Rain
11:40 PM 51.8°F 48.2°F 88% 30.31 in 10.0 miles South 13.8 mph - 0.00 in Rain Light Rain
11:53 PM 51.8°F 48.2°F 88% 30.31 in 10.0 miles South 18.4 mph 24.2 mph N/A Rain Light Rain
Moon Phase
Feb. 28 Mar. 04 Mar. 11 Mar. 19 Mar. 27
Sunrise:06:51 AM (PST) Moon Rise:09:46 PM (PST)2/28
Sunset:05:54 PM (PST) Moon Set:07:48 AM (PST)2/28

Copyright © 2014 The Weather Underground, Inc.